TGPY

Details ICAO TGPY (GND)
Name Grenada/Bishop International
Region Grenada
Timezone America/Grenada (UTC-4.0)
Plans Departing 89
Arriving 101
Stats Elevation 41 ft / 12 m (AMSL)
Location 12.004247° -61.786192°
Runways 1
Magnetic Variation 14.821° W
Sunrise 2018-05-21 09:43:35 UTC / 2018-05-21 05:43:35 Local
Sunset 2018-05-21 22:26:46 UTC / 2018-05-21 18:26:46 Local
Advertisement - Login to hide

Runways

ID Width Length Bearing (true) Bearing (mag) Surface Threshold Offset Overrun Length
10 148 ft / 45 m 9,012 ft / 2,747 m 90.26° 105.08° Asphalt 0 ft / 0 m 0 ft / 0 m
28 148 ft / 45 m 9,012 ft / 2,747 m 270.26° 285.08° Asphalt 0 ft / 0 m 0 ft / 0 m

Map

Weather


0- 5 10 15 20 25 30 35+ Temperature / ° C

Clouds and Precipitation
Forecast for 2018-05-21 06:00 UTC. Updated an hour ago

Ground ~20,000 ft ~40,000 ft Winds

METAR

TGPY 210600Z 08012KT 9999 SCT016 27/24 Q1012 ADJ SHRA-E

TAF

Not found

Frequencies

Ground 121.90 MHz GND
Approach 119.40 MHz APP
Tower 118.90 MHz TWR
Warning: Do not use this data for real-world aviation or navigation. No guarantee of current accuracy is given.